Location: Baix
(44.7118°N, 4.7648°E)
Time: 16:34:45
(UTC+00:00)

Cosmos 2219 Rocket - Pass Details

Date: 07 August 2020
Orbit: 826 x 848 km, 71.0° (Epoch: 22 September)

Event Time Altitude Azimuth Distance (km) Brightness Sun altitude
Rises 01:48:24 0° 318° (NW) 3,415 5.6 -23.0°
Reaches altitude 10° 01:51:53 10° 296° (WNW) 2,476 4.6 -22.7°
Enters shadow 01:53:24 14° 282° (WNW) 2,220 4.2 -22.5°
